loading
|
Showing default

OPS 9316 (IDSCS 6), 2220

Orbit data source: Space-Track

OPS 9316 (IDSCS 6), 2220 is a payload satellite owned by USAF SSD (US) that was launched on Thu, 16 Jun 1966 UTC via a TITAN IIIC launch vehicle from the Air Force Eastern Test Range (AFETR). Payloads include a variety of satellites, spacecraft, and rockets equipped with specific instruments for various scientific and technological missions. These include communications satellites like Starlink; space stations such as the ISS; scientific satellites like the Hubble; Earth observation satellites from companies like Planet Labs, Umbra, and HawkEye 360; GPS; miniature CubeSats for education and research; and military/defense satellites.

Next visibility unknown
Next conjunction unknown
Loading greatness...
OPS 9316 (IDSCS 6) details
Identifier
2220, 1966-053G
Orbit
Active
Last TLE update2 weeks ago
Origin
Flag of USUSAF SSD (US)
ManufacturerPhilco-Ford WDL
MissionNon-operational Defense Communications
Bus & MotorIDCSP, Unknown motor
Mass45 kg wet, 45 kg dry
Launch date (UTC)
1966-06-16 (58 years ago)
Launch vehicle
TITAN IIIC
Launch site
Air Force Eastern Test Range (AFETR)
Object type
Payload
Rocket body
Debris
Shape & HBRIco Poly, 0.9 m
Radar Cross Section0.926 m², Medium (>0.1 m² and < 1m²)

Expand to show TLE details & history

TLE from 2 weeks ago
0 OPS 9316 (IDSCS 6)
1 02220U 66053G   24274.01646589 -.00000085  00000-0  00000-0 0  9998
2 02220   7.2594  51.6355 0065853 164.0374   2.7026  1.07156491132357
Epoch: 2024-09-30T00:23Z
Definitive object data (Epoch: 2024-09-30T00:23:42.652Z)
Latitude1.6664°
Longitude-156.67418°
Altitude33,694.098 km
Speed3.164 km/s
True Right ascension14h 34m 00s
True Declination1° 39' 53"
Sunlit
Object was in daylight at TLE epoch
Predictive object data (real-time)
Latitude5.48118°
Longitude85.10269°
Altitude34,072.16 km
Speed3.135 km/s
Apparent Right ascension06h 13m 54s
Apparent Declination0° 17' 40"
Sunlit
Object is in daylight
Predictive observer data (real-time)
Local Sidereal Time13:06:22
Azimuth278.278° WNW
Elevation-10.217°
Doppler factor1
Orbital elements
Apogee34,227.392 km
Perigee33,696.092 km
Semi-major axis40,339.879 km
Eccentricity0.0065853
Inclination7.2594°
RAAN51.6355°
Arg. of periapsis164.0374°
True anomaly2.73848°
Mean anomaly2.7026°
Eccentric anomaly2.72051°
Mean motion0.26788 °/min
BSTARUnknown
Period1343.88 mins
No data available

OPS 9316 (IDSCS 6) Visibility forecast

Observer location: 39.9160978°, -105.1181434

OPS 9316 (IDSCS 6) is not visible in the next 10 days
Span
Click to sort rows by Start time (UTC) header in descending order
Start Az.
Max El. time (UTC)
Max El. Az.
Max El.
End time (UTC)
End Az.